sat.trackr.live / text

‹ back to catalog

STARLINK-36623

NORAD 67644 · 2026-020AD

PAYLOAD ACTIVE UNKNOWN

§ Identity

Operator
Country
US
Launch date
2026-01-30
Launch site
AFETR
Launch vehicle
Mass (kg)
RCS (m²)

Purposes: comms

External: N2YO · Heavens-Above · Gunter

§ Orbital elements

Epoch: 2026-05-25T04:04:37.968096Z

Period
94.27 min
Inclination
43.0025°
Eccentricity
0.0001248
Mean motion
15.27606962 rev/d
Perigee alt
482.1 km
Apogee alt
483.8 km
Semi-major
6,861.1 km
B*
5.7133e-4
RAAN
67.5617°
Arg perigee
271.8277°
Mean anomaly
88.2432°
Rev number
1,781

§ Raw data

STARLINK-366231 67644U 26020AD  26145.16988389  .00015506  00000+0  57133-3 0  99952 67644  43.0025  67.5617 0001248 271.8277  88.2432 15.27606962 17812

JSON: /api/v1/satellites/67644 · /tle

For live sub-satellite position, see the globe view (requires WebGL).

§ Visibility from observer

Set your observer location to see the next 7 days of passes ≥ 10°. The values pass through the URL so the page stays shareable.

No JS? Fill the form by hand. The geolocation button needs JavaScript.